Miscellaneous Local Product
Issued by NWS North Platte, NE

Home | Current Version | Previous Version | Graphics & Text | Print | Product List | Glossary On
Versions: 1 2 3 4 5 6 7 8 9 10 11 12 13 14 15 16 17 18 19 20 21 22 23 24 25 26 27 28 29 30 31 32 33 34 35 36 37 38 39 40 41 42 43 44 45 46 47 48 49 50
161
AXUS43 KLBF 152210
MISLBF


WESTERN AND NORTH CENTRAL NEBRASKA HOURLY WEATHER ROUNDUP
NATIONAL WEATHER SERVICE NORTH PLATTE NE
400 PM CST SUN JAN 15 2017

NOTE: "FAIR" INDICATES FEW OR NO CLOUDS BELOW 12,000 FEET WITH NO
SIGNIFICANT WEATHER AND/OR OBSTRUCTIONS TO VISIBILITY.

NOTE: STATIONS NOT REPORTING VARIABLES SUCH AS SKY/WEATHER OR
PRESSURE ARE PROVIDED BY RAWS AND APRS NETWORKS AND ARE NOT UNDER
NATIONAL WEATHER SERVICE QUALITY CONTROL.

...OBSERVATIONS IN AND NEAR THE EASTERN PANHANDLE OF NEBRASKA...

CITY           SKY/WX    TMP DP  RH WIND       PRES   REMARKS
PINE RIDGE     CLOUDY    31  24  75 SW5       30.04S WCI  26
CHADRON        CLOUDY    31  23  72 CALM      30.04F
ALLIANCE       CLOUDY    40  18  41 CALM      30.00F
SIDNEY         CLOUDY    34  23  64 E6        30.00S WCI  29
CRESCENT LAKE    N/A     37  18  47 CALM        N/A
$$

...OBSERVATIONS IN NORTHERN NEBRASKA AND FAR SOUTHERN SOUTH DAKOTA...

CITY           SKY/WX    TMP DP  RH WIND       PRES   REMARKS
WINNER         FAIR      41  25  53 NE5       30.07S
VALENTINE      CLOUDY    45  18  34 SE5       30.05S
THEDFORD       CLOUDY    38  25  58 CALM      30.05S
AINSWORTH      CLOUDY    40  27  59 S5        30.06F
O`NEILL        SUNNY     38  24  57 S3        30.10S
ORD            CLOUDY    33  23  66 S7        30.11S WCI  27
BROKEN BOW     CLOUDY    33  26  75 SE7       30.08S WCI  27
VALENTINE NWR    N/A     41  23  49 S6          N/A
BUTTE            N/A     40  26  56 S7          N/A
HALSEY           N/A     38  22  53 CALM        N/A
SARGENT          N/A     32  25  76 SE3         N/A
CHAMBERS         N/A     37  20  50 SE3         N/A
EWING            N/A     35  25  66 S3          N/A
$$

...OBSERVATIONS IN SOUTHWEST NEBRASKA AND FAR NORTHEAST COLORADO...

CITY           SKY/WX    TMP DP  RH WIND       PRES   REMARKS
HOLYOKE        MIX PCPN  34  32  93 CALM      30.03S
IMPERIAL       FRZ RAIN  30  28  92 SE5       30.04S FOG     WCI  25
OGALLALA       DRIZZLE   32  28  84 S6        30.04S WCI  26
NORTH PLATTE   MIX PCPN  32  27  81 S3        30.06F
MCCOOK         FRZ RAIN  31  30  96 E6        30.08S FOG     WCI  25
LEXINGTON      MIX PCPN  31  28  91 CALM      30.10S
STAPLETON        N/A     34  25  68 CALM        N/A
GOTHENBURG       N/A     32  29  87 E3          N/A
CALLAWAY         N/A     29  25  85 S5          N/A  WCI  24
$$

...OBSERVATIONS IN CENTRAL LINCOLN COUNTY AREA...

CITY           SKY/WX    TMP DP  RH WIND       PRES   REMARKS
N.P. AIRPORT   MIX PCPN  32  27  81 S3        30.06F
N.P. DOWNTOWN    N/A     31  27  83 CALM        N/A
N.P. SOUTHEAST   N/A     30  25  81 CALM        N/A
N.P. HILLCREST   N/A     31  27  83 CALM        N/A
$$

...SOME OBSERVATIONS FROM AROUND THE REGION...

CITY           SKY/WX    TMP DP  RH WIND       PRES   REMARKS
LARAMIE        CLOUDY    20  16  84 W6        29.95S WCI  12
CHEYENNE       CLOUDY    38  21  50 NE7       29.95F WCI  33
DENVER         CLOUDY    35  25  66 CALM      29.96S
AKRON          LGT SNOW  29  25  85 N6        29.98S FOG     WCI  23
SCOTTSBLUFF    CLOUDY    39  25  57 NW5       30.01F
RAPID CITY     CLOUDY    29  14  53 CALM      30.00S
BISMARCK       CLOUDY    10   3  73 SE6       30.06S WCI   0
PIERRE         CLOUDY    16   8  71 S3        30.10R
SIOUX FALLS    PTSUNNY   36  23  59 S10       30.15S WCI  28
OMAHA          FRZ RAIN  32  26  78 SE6       30.22S FOG     WCI  26
GRAND ISLAND   FRZ RAIN  30  30 100 E5        30.13F FOG     WCI  25
KANSAS CITY    FRZ RAIN  32  29  88 E9        30.20S FOG     WCI  24
WICHITA        LGT RAIN  34  34 100 E8        30.08F WCI  27
OKLAHOMA CITY  DRIZZLE   36  35  96 NE9       30.00F WCI  29
DALLAS         LGT RAIN  57  57 100 N3        29.93F VSB 1/4
AMARILLO       CLOUDY    32  32 100 N10       29.91F WCI  24
DODGE CITY     CLOUDY    31  30  96 NE8       30.01F FOG     WCI  23
HAYS           MIX PCPN  31  29  92 NE7       30.09F FOG     WCI  24
GOODLAND       MIX PCPN  31  29  92 E3        30.00F
$$




USA.gov is the U.S. government's official web portal to all federal, state and local government web resources and services.